DW8565 Weather Reports


time (UTC)temp
C
wind
direction
speed
KPH
gust
KPH
rain 1hr
cm
rain 24hr
cm
rain mn
cm
humidity
%
barometer
mb
20260504223849 13 221 8.0 16.1 0.00 0.00 0.00 76 1010.8
20260504223349 13 217 8.0 20.9 0.00 0.00 0.00 76 1010.9
20260504222849 13 180 9.7 20.9 0.00 0.00 0.00 76 1010.9
20260504222348 13 179 8.0 20.9 0.00 0.00 0.00 76 1010.8
20260504222119 13 223 8.0 17.7 0.00 0.00 0.00 75 1010.8
20260504221344 13 189 8.0 17.7 0.00 0.00 0.00 76 1010.8
20260504220845 13 199 8.0 19.3 0.00 0.00 0.00 75 1010.8
20260504220346 13 210 8.0 22.5 0.00 0.00 0.00 75 1010.8
20260504215846 13 207 8.0 22.5 0.00 0.00 0.00 75 1010.8
20260504215619 13 252 8.0 19.3 0.00 0.00 0.00 75 1010.7
20260504214848 14 190 8.0 24.1 0.00 0.00 0.00 75 1010.7
20260504214341 14 143 8.0 24.1 0.00 0.00 0.00 75 1010.7
20260504213835 14 194 9.7 22.5 0.00 0.00 0.00 75 1010.7
20260504213329 14 216 9.7 22.5 0.00 0.00 0.00 74 1010.7
20260504212824 14 215 8.0 22.5 0.00 0.00 0.00 74 1010.7
20260504212317 14 145 8.0 19.3 0.00 0.00 0.00 74 1010.7
20260504211811 14 149 9.7 17.7 0.00 0.00 0.00 73 1010.8
20260504211305 14 162 9.7 19.3 0.00 0.00 0.00 73 1010.8
20260504211030 14 177 8.0 19.3 0.00 0.00 0.00 73 1010.8
20260504210252 14 180 8.0 19.3 0.00 0.00 0.00 73 1010.7
20260504205747 14 163 8.0 25.7 0.00 0.00 0.00 73 1010.8
20260504205242 14 195 8.0 25.7 0.00 0.00 0.00 73 1010.7
20260504204734 15 171 8.0 17.7 0.00 0.00 0.00 73 1010.8
20260504204228 15 165 8.0 16.1 0.00 0.00 0.00 73 1010.8
20260504203723 15 184 8.0 17.7 0.00 0.00 0.00 73 1010.8
20260504203217 15 186 8.0 19.3 0.00 0.00 0.00 72 1010.8
20260504202711 15 178 8.0 22.5 0.00 0.00 0.00 72 1010.8
20260504202205 15 170 8.0 22.5 0.00 0.00 0.00 72 1010.8
20260504201659 15 170 8.0 20.9 0.00 0.00 0.00 71 1010.9
20260504201153 15 151 6.4 19.3 0.00 0.00 0.00 71 1010.9
20260504200646 15 165 6.4 19.3 0.00 0.00 0.00 71 1010.9
20260504200140 15 155 8.0 32.2 0.00 0.00 0.00 71 1011.0
20260504195635 15 225 9.7 32.2 0.00 0.00 0.00 71 1011.0
20260504195129 15 173 8.0 17.7 0.00 0.00 0.00 71 1011.0
20260504194623 15 186 8.0 17.7 0.00 0.00 0.00 71 1011.1
20260504194117 15 201 8.0 17.7 0.00 0.00 0.00 71 1011.2
20260504193617 15 140 9.7 24.1 0.00 0.00 0.00 71 1011.3
20260504193116 15 143 9.7 24.1 0.00 0.00 0.00 71 1011.3
20260504192616 15 160 9.7 20.9 0.00 0.00 0.00 70 1011.3
20260504192349 15 156 8.0 24.1 0.00 0.00 0.00 69 1011.4
20260504191617 15 169 8.0 24.1 0.00 0.00 0.00 69 1011.4
20260504191116 15 165 9.7 24.1 0.00 0.00 0.00 69 1011.5
20260504190615 15 210 9.7 19.3 0.00 0.00 0.00 69 1011.5
20260504190116 15 174 8.0 27.4 0.00 0.00 0.00 69 1011.6
20260504185616 15 186 8.0 27.4 0.00 0.00 0.00 68 1011.6
20260504185349 15 164 8.0 25.7 0.00 0.00 0.00 68 1011.7
20260504184617 15 181 8.0 22.5 0.00 0.00 0.00 67 1011.8
20260504184117 15 188 6.4 22.5 0.00 0.00 0.00 67 1011.9
20260504183617 15 185 8.0 20.9 0.00 0.00 0.00 68 1012.0
20260504183112 15 185 8.0 20.9 0.00 0.00 0.00 68 1012.0
20260504182844 15 170 8.0 19.3 0.00 0.00 0.00 68 1012.0
20260504182114 15 161 9.7 24.1 0.00 0.00 0.00 68 1012.1
20260504181612 15 168 8.0 24.1 0.00 0.00 0.00 68 1012.1
20260504181112 15 272 8.0 22.5 0.00 0.00 0.00 68 1012.1
20260504180613 15 218 8.0 22.5 0.00 0.00 0.00 68 1012.3
20260504180113 15 207 8.0 20.9 0.00 0.00 0.00 68 1012.4
20260504175612 15 158 8.0 19.3 0.00 0.00 0.00 68 1012.4
20260504175114 15 200 8.0 22.5 0.00 0.00 0.00 69 1012.5
20260504174607 15 188 8.0 22.5 0.00 0.00 0.00 69 1012.5
20260504174107 15 175 8.0 19.3 0.00 0.00 0.00 69 1012.5
20260504173609 15 170 8.0 19.3 0.00 0.00 0.00 69 1012.5
20260504173107 15 162 8.0 20.9 0.00 0.00 0.00 69 1012.6
20260504172608 15 230 8.0 22.5 0.00 0.00 0.00 69 1012.7
20260504172108 15 233 8.0 25.7 0.00 0.00 0.00 69 1012.7
20260504171608 15 149 8.0 25.7 0.00 0.00 0.00 69 1012.7
20260504171108 15 174 6.4 17.7 0.00 0.00 0.00 69 1012.8
20260504170842 15 184 6.4 17.7 0.00 0.00 0.00 69 1012.9
20260504170104 15 156 8.0 17.7 0.00 0.00 0.00 69 1013.0
20260504151102 15 165 8.0 19.3 0.00 0.00 0.00 68 1013.8
20260504150556 15 315 9.7 19.3 0.00 0.00 0.00 69 1013.9
20260504141043 14 211 8.0 19.3 0.00 0.00 0.00 70 1014.2
20260504140543 14 198 8.0 17.7 0.00 0.00 0.00 70 1014.2
20260504140313 14 207 8.0 19.3 0.00 0.00 0.00 70 1014.3
20260504130503 14 280 9.7 25.7 0.00 0.00 0.00 63 1014.7
20260504110240 11 215 11.3 27.4 0.00 0.00 0.00 69 1015.4
20260504100128 10 237 8.0 19.3 0.00 0.00 0.00 67 1015.2
20260504090106 11 220 11.3 30.6 0.00 0.00 0.00 68 1015.1
20260504081606 11 229 12.9 22.5 0.00 0.00 0.00 67 1015.0
20260504081335 11 223 14.5 25.7 0.00 0.00 0.00 67 1015.0
20260504080606 11 205 14.5 25.7 0.00 0.00 0.00 66 1014.9
20260504080106 11 237 12.9 24.1 0.00 0.00 0.00 66 1014.9
20260504070108 11 227 12.9 24.1 0.00 0.00 0.00 62 1014.5
20260504050512 12 219 12.9 22.5 0.00 0.00 0.00 60 1014.3
20260504050241 12 238 11.3 20.9 0.00 0.00 0.00 60 1014.2
20260504045511 12 232 11.3 22.5 0.00 0.00 0.00 58 1014.2
20260504045013 12 227 12.9 29.0 0.00 0.00 0.00 56 1014.2
20260504044511 12 201 12.9 29.0 0.00 0.00 0.00 57 1014.2
20260504044012 12 230 12.9 22.5 0.00 0.00 0.00 57 1014.2
20260504043514 12 229 12.9 24.1 0.00 0.00 0.00 57 1014.2
20260504043011 12 222 11.3 24.1 0.00 0.00 0.00 56 1014.2
20260504042511 12 225 9.7 25.7 0.00 0.00 0.00 56 1014.2
20260504042012 12 221 8.0 25.7 0.00 0.00 0.00 56 1014.1
20260504041511 12 233 11.3 24.1 0.00 0.00 0.00 58 1014.1
20260504041019 12 233 8.0 19.3 0.00 0.00 0.00 54 1014.0
20260504041012 12 224 11.3 24.1 0.00 0.00 0.00 54 1014.1
20260504040011 12 232 8.0 17.7 0.00 0.00 0.00 56 1014.0
20260504035511 12 251 9.7 17.7 0.00 0.00 0.00 53 1013.8
20260504035012 12 248 11.3 17.7 0.00 0.00 0.00 52 1013.8
20260504034510 12 232 11.3 19.3 0.00 0.00 0.00 52 1013.7
20260504034009 12 252 11.3 19.3 0.00 0.00 0.00 52 1013.8
20260504033510 12 209 12.9 22.5 0.00 0.00 0.00 51 1013.7
20260504033009 12 229 14.5 24.1 0.00 0.00 0.00 51 1013.7
20260504032509 12 235 14.5 24.1 0.00 0.00 0.00 49 1013.7
20260504032008 12 206 14.5 25.7 0.00 0.00 0.00 48 1013.6
20260504031510 12 231 11.3 25.7 0.00 0.00 0.00 47 1013.7
20260504031010 12 183 9.7 17.7 0.00 0.00 0.00 50 1013.8
20260504030509 12 228 8.0 17.7 0.00 0.00 0.00 50 1013.6
20260504030004 12 247 9.7 20.9 0.00 0.00 0.00 50 1013.6
20260504025459 12 232 9.7 22.5 0.00 0.00 0.00 51 1013.7
20260504024952 12 233 9.7 24.1 0.00 0.00 0.00 51 1013.7
20260504024448 12 0 11.3 24.1 0.00 0.00 0.00 50 1013.7
20260504023948 12 221 9.7 20.9 0.00 0.00 0.00 49 1013.7
20260504023457 12 234 8.0 17.7 0.00 0.00 0.00 50 1013.7
20260504023447 12 238 8.0 17.7 0.00 0.00 0.00 49 1013.7
20260504022447 12 240 9.7 19.3 0.00 0.00 0.00 50 1013.6
20260504021947 12 229 8.0 19.3 0.00 0.00 0.00 48 1013.7
20260504021447 12 232 8.0 17.7 0.00 0.00 0.00 50 1013.7
20260504020948 12 216 6.4 14.5 0.00 0.00 0.00 51 1013.6
20260504020447 13 229 8.0 19.3 0.00 0.00 0.00 51 1013.6
20260504015949 13 225 9.7 19.3 0.00 0.00 0.00 49 1013.6
20260504015455 13 236 9.7 19.3 0.00 0.00 0.00 48 1013.5
20260504015448 13 226 9.7 19.3 0.00 0.00 0.00 48 1013.6
20260504014447 13 213 8.0 16.1 0.00 0.00 0.00 50 1013.5
20260504014220 13 234 8.0 16.1 0.00 0.00 0.00 51 1013.5
20260504013447 13 215 8.0 16.1 0.00 0.00 0.00 48 1013.5
20260504012948 13 188 9.7 16.1 0.00 0.00 0.00 50 1013.5
20260504012439 13 248 9.7 16.1 0.00 0.00 0.00 48 1013.4
20260504012209 13 247 9.7 19.3 0.00 0.00 0.00 47 1013.3
20260504011439 13 225 8.0 19.3 0.00 0.00 0.00 49 1013.2
20260504010945 13 233 6.4 16.1 0.00 0.00 0.00 49 1013.0
20260504010937 13 228 6.4 14.5 0.00 0.00 0.00 50 1013.1
20260504005938 13 229 9.7 20.9 0.00 0.00 0.00 45 1012.9
20260504005437 13 226 9.7 20.9 0.00 0.00 0.00 43 1012.9
20260504004937 13 228 8.0 16.1 0.00 0.00 0.00 44 1012.9
20260504004437 13 234 8.0 16.1 0.00 0.00 0.00 44 1012.8
20260504004210 13 239 6.4 16.1 0.00 0.00 0.00 44 1012.8
20260504003436 13 245 6.4 17.7 0.00 0.00 0.00 43 1012.8
20260504003207 13 229 8.0 17.7 0.00 0.00 0.00 41 1012.7
20260504002436 13 226 8.0 16.1 0.00 0.00 0.00 40 1012.6
20260504001937 13 229 8.0 17.7 0.00 0.00 0.00 41 1012.6
20260504001708 13 243 9.7 19.3 0.00 0.00 0.00 41 1012.6
20260504000931 13 231 9.7 19.3 0.00 0.00 0.00 41 1012.6
20260504000424 13 241 9.7 17.7 0.00 0.00 0.00 42 1012.5
20260503235918 13 224 8.0 17.7 0.00 0.00 0.00 43 1012.4
20260503235413 14 215 8.0 16.1 0.00 0.00 0.00 42 1012.3
20260503234905 14 224 8.0 16.1 0.00 0.00 0.00 42 1012.3
20260503234400 14 220 8.0 19.3 0.00 0.00 0.00 42 1012.2
20260503233853 14 236 9.7 19.3 0.00 0.00 0.00 39 1012.2
20260503233618 14 200 9.7 17.7 0.00 0.00 0.00 37 1012.1
20260503232842 15 225 8.0 16.1 0.00 0.00 0.00 37 1012.0
20260503232335 15 239 8.0 16.1 0.00 0.00 0.00 36 1012.0
20260503231830 15 279 8.0 16.1 0.00 0.00 0.00 35 1012.0
20260503231323 15 286 9.7 19.3 0.00 0.00 0.00 34 1012.0
20260503230817 15 234 11.3 22.5 0.00 0.00 0.00 36 1012.0
20260503230542 15 255 11.3 24.1 0.00 0.00 0.00 33 1012.0
20260503225805 15 259 12.9 27.4 0.00 0.00 0.00 32 1012.0
20260503225300 15 275 12.9 27.4 0.00 0.00 0.00 33 1012.0
20260503224753 15 218 12.9 27.4 0.00 0.00 0.00 33 1012.0
20260503224247 15 265 12.9 27.4 0.00 0.00 0.00 31 1012.0